sat.trackr.live / text

‹ back to catalog

STARLINK-32741

NORAD 62526 · 2025-004R

PAYLOAD ACTIVE UNKNOWN

§ Identity

Operator
Country
US
Launch date
2025-01-08
Launch site
AFETR
Launch vehicle
Mass (kg)
RCS (m²)

Purposes: comms

External: N2YO · Heavens-Above · Gunter

§ Orbital elements

Epoch: 2026-05-25T01:03:06.708096Z

Period
94.27 min
Inclination
43.0005°
Eccentricity
0.0000908
Mean motion
15.27592292 rev/d
Perigee alt
482.4 km
Apogee alt
483.6 km
Semi-major
6,861.1 km
B*
4.9641e-4
RAAN
145.4039°
Arg perigee
269.8686°
Mean anomaly
90.2061°
Rev number
7,817

§ Raw data

STARLINK-327411 62526U 25004R   26145.04382764  .00013428  00000+0  49641-3 0  99982 62526  43.0005 145.4039 0000908 269.8686  90.2061 15.27592292 78178

JSON: /api/v1/satellites/62526 · /tle

For live sub-satellite position, see the globe view (requires WebGL).

§ Visibility from observer

Set your observer location to see the next 7 days of passes ≥ 10°. The values pass through the URL so the page stays shareable.

No JS? Fill the form by hand. The geolocation button needs JavaScript.